Regional Weather Roundup
Issued by NWS Cleveland, OH

Home | Current Version | Previous Version | Graphics & Text | Print | Product List | Glossary On
Versions: 1 2 3 4 5 6 7 8 9 10 11 12 13 14 15 16 17 18 19 20 21 22 23 24 25 26 27 28 29 30 31 32 33 34 35 36 37 38 39 40 41 42 43 44 45 46 47 48 49 50
848
ASUS41 KCLE 251912
RWRCLE
OHIO REGIONAL WEATHER ROUNDUP
NATIONAL WEATHER SERVICE WILMINGTON, OH
200 PM EST SAT FEB 25 2017

NOTE: "FAIR" INDICATES FEW OR NO CLOUDS BELOW 12,000 FEET WITH NO
SIGNIFICANT WEATHER AND/OR OBSTRUCTIONS TO VISIBILITY.

OHZ001>008-015>018-024>027-034-035-043-044-252000-
   NORTHWEST OHIO

CITY           SKY/WX    TMP DP  RH WIND       PRES   REMARKS
DEFIANCE       LGT SNOW  27  19  72 W15G26    29.79R WCI  15
FINDLAY        CLOUDY    31  20  63 W29G38    29.77R WCI  16
TOLEDO EXPRESS CLOUDY    30  19  63 W26G37    29.74R WCI  16
TOLEDO EXEC    CLOUDY    33  22  63 W29G36    29.74R WCI  19
LIMA           MIX PCPN  29  23  78 W24G35    29.80R WCI  15
$$

OHZ009>014-019>023-028>033-038-089-252000-
   NORTHEAST OHIO

CITY           SKY/WX    TMP DP  RH WIND       PRES   REMARKS
CLE-HOPKINS    FLURRIES  39  25  57 W24G33    29.70R
CLE-LAKEFRONT  CLOUDY    38  28  67 W23G30    29.68R
CUY CO. ARPT   LGT SNOW  37  32  81 W21G32    29.68R
LORAIN-ELYRIA  FLURRIES  36  24  62 W26G32    29.71R
ASHTABULA      FLURRIES  36  30  79 W21G29    29.66R
AKRON-CANTON   FLURRIES  37  27  67 W20G32    29.68R
WOOSTER        CLOUDY    36  29  75 W21G30    29.71R
MANSFIELD      CLOUDY    32  24  72 W21G33    29.72R WCI  20
YOUNGSTOWN     CLOUDY    41  28  60 SW20G31   29.64R
$$

OHZ042-051>053-060>062-070>072-077>081-252000-
  SOUTHWEST OHIO

CITY           SKY/WX    TMP DP  RH WIND       PRES   REMARKS
CINC-COVINGTON CLOUDY    32  19  58 W20G26    29.90R WCI  20
CINC-LUNKEN    CLOUDY    33  22  63 W16G26    29.93R WCI  23
HAMILTON       CLOUDY    32  21  64 W17G29    29.92R WCI  21
DAYTON         CLOUDY    30  20  66 W22       29.85R WCI  17
WRIGHT-PAT AFB CLOUDY    32  20  59 SW17G30   29.85R WCI  21
DAYTON GENERAL CLOUDY    31  20  63 W18G28    29.85R WCI  19
WILMINGTON     CLOUDY    32  22  66 W22G35    29.85R WCI  19
$$

OHZ036-037-039>041-045>050-054>059-063>069-073>076-082>088-252000-
  CENTRAL AND SOUTHEAST OHIO

CITY           SKY/WX    TMP DP  RH WIND       PRES   REMARKS
COLUMBUS       CLOUDY    38  27  64 W25G32    29.80R
OSU AIRPORT    FLURRIES  34  24  67 W23G39    29.81R WCI  22
BOLTON FIELD   CLOUDY    34  25  69 W21G28    29.83R WCI  22
RICKENBACK AFB CLOUDY    35  25  67 W28G36    29.83R WCI  22
NEWARK         CLOUDY    38  27  64 W26G33    29.78R
MARION         CLOUDY    32  23  69 W23G32    29.78R WCI  19
LANCASTER      CLOUDY    38  26  62 W21G30    29.81R
ZANESVILLE     CLOUDY    39  24  55 W17G31    29.76R
NEW PHILLY     CLOUDY    41  27  57 W12G25    29.71S
$$




USA.gov is the U.S. government's official web portal to all federal, state and local government web resources and services.